星链-11740 (STARLINK-11740)

导读

STARLINK-11740是美国SpaceX公司星链计划的一颗卫星,于2025年6月13日发射升空。它属于Starlink星座组网卫星,主要为全球范围提供高速低延迟的互联网接入服务,尤其服务偏远地区及网络基础设施薄弱区域,进一步扩充了星链星座的在轨规模,提升了星座整体覆盖能力与服务稳定性。

Basic Information
目录编号:
64382
目录名称:
STARLINK-11740
国际标识:
2025-127N
轨道中心:
EARTH
卫星名称:
星链-11740
卫星全名:
星链-11740 (STARLINK-11740)
卫星状态:
在轨 (已飞行455 天)
发射日期:
2025-06-13 UTC
国别 :
美国 (US)
星等 :
--
This satellite is enrolled in the Space Conjunction Data Service (SCDS) and the current flight risk assessment level is: No High Risk
Orbit Information
数据来源 国际轨道数据
星历时间: 2026-09-11T05:26:28+0800
14小时前
查看轨道信息
半长轴: 6734.525km
偏心率: 0.0002146
轨道倾角: 43.000°
近地点辐角 265.135°
升交点赤经 47.869°
平近点角 94.927°
近地点: 354.942km
远地点: 357.834km
周期: 91.669分钟
每日圈数: 15.708776
Detailed Information
固有亮度:
5
最大亮度:
2.5
卫星平台:
Starlink V1.0
覆盖范围:
全球
运营商:
太空探索技术公司
运营商所在国:
美国
制造商(研发单位):
太空探索技术公司
制造商所在国:
美国
使用方式:
暂无
Satellite Introduction
Starlink 计划是 SpaceX 推出的全球卫星互联网项目,通过发射低轨道卫星,为全球尤其是偏远地区提供高速、低延迟的互联网服务。自 2019 年起,Starlink 已部署数千颗卫星,旨在缩小全球数字鸿沟,推动互联网普及。该项目还为军事、航空等行业提供通信支持,带来广泛经济效益。
2D Orbit Map
3D Orbit Map
Orbit Altitude Analysis Chart
Orbit Inclination Analysis Chart
Orbit Comprehensive Analysis Chart
View Comprehensive Chart
Conjunction Data List
Event ID Objects TCA Miss Dist (km) Collision Risk Probability Collision Risk Index (CRI) Action
CDM_260913-000406-432406-438221
2026-09-13T
00:04:50+0000
1.717 km
极远距离
2.140141E-6 低风险 0.42
CDM_260913-151006-222006-438221
2026-09-13T
15:10:59+0000
2.130 km
极远距离
1.999022E-6 低风险 0.41
Miss Distance Evolution Trend with All Objects
Collision Probability Evolution Trend with All Objects